Tracking 19638 objects as of 19-May-2019
HD Live streaming from Space Station
objects crossing your sky now

COSMOS 2241

Track COSMOS 2241 now!
10-day predictions
COSMOS 2241 is classified as:


NORAD ID: 22594
Int'l Code: 1993-022A
Perigee: 203.0 km
Apogee: 13,562.1 km
Inclination: 61.5 °
Period: 253.1 minutes
Semi major axis: 13253 km
RCS: 11.169 m2 (large)
Launch date: April 6, 1993
Source: Commonwealth of Independent States (former USSR) (CIS)
Launch site: PLESETSK MISSILE AND SPACE COMPLEX (PKMTR)
aabbcc
Your satellite tracking list
Your tracking list is empty




NASA's NSSDC Master Catalog

Two Line Element Set (TLE):
1 22594U 93022A   19139.11138378  .00029930  79766-6  50805-3 0  9998
2 22594  61.4803  62.4755 5039804  37.4579 348.7738  5.68988028244766
Source of the keplerian elements: AFSPC